FW5398 Weather Reports


time (UTC)temp
F
wind
direction
speed
knots
gust
knots
rain 1hr
in
rain 24hr
in
rain mn
in
humidity
%
barometer
mb
20260508001534 47 203 1.7 4.3 0.10 0.74 0.74 87 1002.4
20260508000031 47 186 3.5 9.6 0.08 0.72 0.72 86 1002.3
20260507234626 49 255 5.2 10.4 0.05 0.69 0.69 86 1002.1
20260507233024 50 256 4.3 7.0 0.01 0.65 0.65 86 1001.7
20260507231522 51 176 4.3 12.2 0.00 0.64 0.64 86 1001.7
20260507230021 50 180 7.8 13.9 0.00 0.64 0.64 84 1001.8
20260507224523 55 151 9.6 13.9 0.00 0.64 0.64 84 1001.0
20260507223017 54 177 10.4 16.5 0.00 0.64 0.64 85 1000.5
20260507221522 54 131 11.3 17.4 0.00 0.64 0.64 85 1000.5
20260507220019 53 137 10.4 17.4 0.00 0.64 0.64 85 1000.7
20260507214514 53 128 9.6 14.8 0.00 0.64 0.64 85 1000.7
20260507213026 53 131 10.4 15.6 0.00 0.64 0.64 85 1000.7
20260507211513 53 123 13.9 20.0 0.00 0.64 0.64 85 1000.6
20260507210028 53 105 12.2 18.2 0.00 0.64 0.64 85 1000.6
20260507204510 53 135 12.2 20.9 0.01 0.64 0.64 86 1000.7
20260507203017 53 151 11.3 17.4 0.06 0.64 0.64 86 1001.0
20260507201514 54 103 11.3 17.4 0.12 0.64 0.64 86 1000.3
20260507200016 54 112 10.4 20.0 0.15 0.64 0.64 86 1000.3
20260507194506 54 114 11.3 17.4 0.17 0.63 0.63 86 1000.6
20260507193132 54 135 11.3 18.2 0.17 0.57 0.57 86 1001.2
20260507191601 54 131 13.9 22.6 0.15 0.51 0.51 86 1002.4
20260507190056 54 137 11.3 18.2 0.19 0.48 0.48 86 1002.6
20260507184555 54 122 11.3 20.0 0.26 0.46 0.46 86 1002.3
20260507183100 54 158 11.3 16.5 0.33 0.41 0.41 86 1003.1
20260507181551 54 137 11.3 22.6 0.34 0.36 0.36 86 1002.9
20260507180049 55 207 9.6 17.4 0.28 0.28 0.28 85 1003.6
20260507174547 55 187 8.7 16.5 0.19 0.20 0.20 85 1003.9
20260507173105 55 199 7.8 20.0 0.06 0.07 0.07 84 1003.7
20260507171545 56 141 7.8 18.2 0.01 0.02 0.02 84 1003.0
20260507170047 57 120 10.4 18.2 0.00 0.01 0.01 83 1002.6
20260507164541 58 176 15.6 27.8 0.00 0.01 0.01 82 1002.5
20260507163039 59 168 8.7 26.1 0.00 0.01 0.01 81 1002.9
20260507161539 60 154 15.6 29.5 0.00 0.01 0.01 81 1003.2
20260507160056 61 125 10.4 23.5 0.00 0.01 0.01 80 1004.4
20260507154535 61 135 13.0 26.1 0.00 0.01 0.01 80 1004.1
20260507153034 61 184 10.4 25.2 0.00 0.01 0.01 80 1004.5
20260507151529 60 138 9.6 19.1 0.00 0.01 0.01 80 1004.7
20260507150029 60 181 9.6 23.5 0.00 0.01 0.01 80 1005.1
20260507144541 60 154 9.6 22.6 0.00 0.01 0.01 80 1005.4
20260507143023 60 122 11.3 26.9 0.00 0.01 0.01 80 1005.5
20260507141525 60 183 17.4 26.9 0.00 0.01 0.01 80 1006.1
20260507140019 60 189 15.6 31.3 0.00 0.01 0.01 80 1006.2
20260507134520 59 245 9.6 20.0 0.00 0.01 0.01 80 1006.3
20260507133015 59 183 8.7 23.5 0.00 0.01 0.01 81 1006.4
20260507131513 58 174 10.4 26.1 0.00 0.01 0.01 81 1006.5
20260507130025 59 157 13.0 24.3 0.00 0.01 0.01 80 1007.1
20260507124515 59 234 11.3 31.3 0.00 0.01 0.01 81 1006.9
20260507123010 58 131 7.0 20.0 0.00 0.01 0.01 82 1007.5
20260507121509 58 130 7.8 26.1 0.00 0.01 0.01 82 1006.9
20260507120011 57 166 12.2 24.3 0.01 0.01 0.01 83 1007.1
20260507114505 57 115 7.8 15.6 0.01 0.01 0.01 83 1007.5
20260507113006 57 142 10.4 26.1 0.01 0.01 0.01 83 1007.6
20260507111507 58 131 10.4 30.4 0.00 0.00 0.00 82 1007.9
20260507110005 58 149 10.4 26.1 0.00 0.00 0.00 82 1008.4
20260507104502 57 141 10.4 26.1 0.00 0.00 0.00 82 1008.0
20260507103100 57 140 12.2 26.1 0.00 0.00 0.00 82 1008.2
20260507101629 57 147 8.7 20.9 0.00 0.00 0.00 82 1008.4
20260507100057 56 189 13.9 29.5 0.00 0.00 0.00 82 1008.6
20260507094557 56 183 12.2 24.3 0.00 0.00 0.00 83 1008.7
20260507093058 56 151 14.8 23.5 0.00 0.00 0.00 83 1009.1
20260507091551 56 173 9.6 22.6 0.00 0.00 0.00 83 1009.6
20260507090052 56 133 12.2 22.6 0.00 0.00 0.00 83 1009.9
20260507084548 55 147 9.6 24.3 0.00 0.00 0.00 82 1009.9
20260507083047 56 118 13.9 21.7 0.00 0.00 0.00 82 1010.2
20260507081543 56 176 6.1 14.8 0.00 0.00 0.00 81 1010.4
20260507080041 57 158 12.2 23.5 0.00 0.00 0.00 80 1009.5
20260507074537 57 132 13.0 23.5 0.00 0.00 0.00 81 1009.9
20260507073036 57 141 12.2 20.9 0.00 0.00 0.00 80 1010.5
20260507071534 57 124 10.4 26.9 0.00 0.00 0.00 80 1010.7
20260507070033 58 126 13.0 20.0 0.00 0.00 0.00 79 1011.2
20260507064532 58 149 14.8 25.2 0.00 0.00 0.00 78 1010.8
20260507063031 58 173 13.9 23.5 0.00 0.00 0.00 79 1011.1
20260507061527 58 126 12.2 20.0 0.00 0.00 0.00 89 1011.4
20260507060022 58 127 9.6 19.1 0.00 0.00 0.00 100 1011.5
20260507054521 58 120 14.8 27.8 0.00 0.00 0.00 100 1011.5
20260507053018 58 149 14.8 20.9 0.00 0.00 0.00 100 1011.9
20260507051515 57 129 11.3 19.1 0.00 0.00 0.00 100 1012.5
20260507050014 57 128 11.3 21.7 0.00 0.00 0.00 100 1012.9
20260507044512 57 152 13.9 25.2 0.00 0.00 0.00 100 1013.2
20260507043010 57 164 12.2 21.7 0.00 0.00 0.00 100 1013.4
20260507041518 57 135 10.4 21.7 0.00 0.00 0.00 100 1013.9
20260507040005 57 143 14.8 24.3 0.00 0.00 0.00 100 1014.3
20260507034501 58 118 12.2 22.6 0.00 0.00 0.00 100 1014.6
20260507033058 58 143 10.4 21.7 0.00 0.00 0.00 100 1014.9
20260507031558 58 158 12.2 17.4 0.00 0.00 0.00 100 1015.3
20260507030058 58 147 8.7 21.7 0.00 0.00 0.00 100 1015.6
20260507024551 58 193 9.6 23.5 0.00 0.00 0.00 100 1015.8
20260507023104 58 149 11.3 19.1 0.00 0.00 0.00 100 1015.9
20260507021552 58 169 13.0 26.1 0.00 0.00 0.00 100 1015.9
20260507020049 58 148 13.9 25.2 0.00 0.00 0.00 100 1016.1
20260507014558 57 180 11.3 19.1 0.00 0.00 0.00 100 1016.1
20260507013103 58 139 10.4 20.0 0.00 0.00 0.00 100 1016.2
20260507011543 58 136 13.0 20.9 0.00 0.00 0.00 100 1016.1
20260507010042 58 159 13.9 26.1 0.00 0.00 0.00 100 1016.3
20260507004540 58 115 12.2 19.1 0.00 0.00 0.00 100 1016.4
20260507003040 59 160 13.0 20.9 0.00 0.00 0.00 100 1016.4